User: anonymous   Login
Location: Unspecified
(0.0000°N, 0.0000°E)
Time: 19:24:12
(UTC+00:00)
Language:

PAKSAT 1R - Orbit

View from above orbital plane
View from above orbital plane
View from above satellite
View from above satellite

Ground track
Ground track

The orbit data is extracted from the following two-line orbital elements,

1 37779U 11042A   18111.40462644  .00000138  00000-0  00000+0 0  9994
2 37779   0.0176 292.9049 0004742  83.2738  16.8685  1.00272534 24411
Epoch (UTC): 21 April 2018 09:42:39
Eccentricity: 0.0004742
inclination: 0.0176°
perigee height: 35766 km
apogee height: 35806 km
right ascension of ascending node: 292.9049°
argument of perigee: 83.2738°
revolutions per day: 1.00272534
mean anomaly at epoch: 16.8685°
orbit number at epoch: 2441

The dashed part of the orbit path shows where the satellite is in the earth's shadow,  

DLR